CORVUS BC4

Last updated on Sun Apr 12 2026 00:03:55 GMT+0000 (Coordinated Universal Time)

1 43767U 18099K 26101.35645487 .00003202 00000+0 19026-3 0 9993 2 43767 97.4143 146.2955 0007279 223.0224 137.0439 15.11967329402309
UTC large
Height (km)
Speed (km/s)
/
Latitude / Longitude
Inclination (degrees)
Orbital Period (minutes)
Azimuth
Elevation
Range (km)
Doppler Factor

Next 0 passes for location: London (51.5072 / 0.1276)

Sorry there are no passes over London.
CORVUS BC4